When you browse on this site, cookies collect data to enhance your experience and personalize the content and advertising you see.
Visit our Privacy Policy to learn more. By continuing to use the site, you agree to this use of cookies and data.
  • In Österreich
  • Länderverzeichnis
  • Für 7 Tage
  • Wassertemperatur
  • Satellitenkarten
  • Wetterkarte
  • News
  • Widgets
  • user-avatar
    Anmelden

    Stündliche Wetter Rivne

    Heute, 15 Dezember, Samstag

    Zeit Temperatur Niederschläge Wind Luftdruck Luftfeuchtigkeit
    00:00 -3°C° 0 mm 2 m/S 742 mmHg 92%
    01:00 -5°C° 0 mm 3 m/S 742 mmHg 92%
    02:00 -5°C° 0 mm 3 m/S 742 mmHg 92%
    03:00 -5°C° 0 mm 3 m/S 742 mmHg 92%
    04:00 -5°C° 0 mm 3 m/S 742 mmHg 91%
    05:00 -5°C° 0 mm 3 m/S 742 mmHg 91%
    06:00 -5°C° 0 mm 3 m/S 742 mmHg 91%
    07:00 -5°C° 0 mm 4 m/S 742 mmHg 91%
    08:00 -5°C° 0 mm 4 m/S 742 mmHg 90%
    09:00 -6°C° 0 mm 5 m/S 742 mmHg 88%
    10:00 -6°C° 0 mm 5 m/S 742 mmHg 85%
    11:00 -5°C° 0 mm 6 m/S 742 mmHg 82%
    12:00 -5°C° 0 mm 6 m/S 742 mmHg 82%
    13:00 -5°C° 0 mm 6 m/S 742 mmHg 81%
    14:00 -5°C° 0 mm 6 m/S 741 mmHg 80%
    15:00 -5°C° 0.1 mm 6 m/S 741 mmHg 82%
    16:00 -5°C° 0.1 mm 6 m/S 741 mmHg 84%
    17:00 -5°C° 0.1 mm 6 m/S 741 mmHg 86%
    18:00 -6°C° 0.3 mm 6 m/S 741 mmHg 86%
    19:00 -6°C° 0.3 mm 6 m/S 741 mmHg 87%
    20:00 -6°C° 0.3 mm 6 m/S 741 mmHg 88%
    21:00 -6°C° 0.4 mm 6 m/S 741 mmHg 89%
    22:00 -6°C° 0.4 mm 6 m/S 740 mmHg 89%
    23:00 -6°C° 0.4 mm 6 m/S 740 mmHg 89%

    Morgen, 16 Dezember, Sonntag

    Zeit Temperatur Niederschläge Wind Luftdruck Luftfeuchtigkeit
    00:00 -6°C° 0.2 mm 6 m/S 740 mmHg 89%
    01:00 -5°C° 0.2 mm 6 m/S 740 mmHg 89%
    02:00 -5°C° 0.2 mm 6 m/S 740 mmHg 89%
    03:00 -5°C° 0.2 mm 6 m/S 739 mmHg 89%
    04:00 -5°C° 0.2 mm 6 m/S 739 mmHg 90%
    05:00 -5°C° 0.2 mm 5 m/S 738 mmHg 90%
    06:00 -5°C° 0.2 mm 5 m/S 738 mmHg 90%
    07:00 -5°C° 0.2 mm 5 m/S 738 mmHg 91%
    08:00 -5°C° 0.2 mm 5 m/S 739 mmHg 91%
    09:00 -4°C° 0.2 mm 5 m/S 739 mmHg 90%
    10:00 -4°C° 0.2 mm 5 m/S 739 mmHg 89%
    11:00 -3°C° 0.2 mm 6 m/S 739 mmHg 89%
    12:00 -2°C° 0.1 mm 5 m/S 739 mmHg 88%
    13:00 -2°C° 0.1 mm 5 m/S 738 mmHg 88%
    14:00 -1°C° 0.1 mm 5 m/S 738 mmHg 88%
    15:00 -1°C° 0.1 mm 4 m/S 738 mmHg 89%
    16:00 -2°C° 0.1 mm 4 m/S 738 mmHg 91%
    17:00 -2°C° 0.1 mm 4 m/S 738 mmHg 92%
    18:00 -2°C° 0.1 mm 4 m/S 739 mmHg 93%
    19:00 -2°C° 0.1 mm 4 m/S 739 mmHg 93%
    20:00 -1°C° 0.1 mm 3 m/S 739 mmHg 94%
    21:00 -1°C° 0.2 mm 3 m/S 739 mmHg 94%
    22:00 -1°C° 0.2 mm 3 m/S 739 mmHg 94%
    23:00 -1°C° 0.2 mm 3 m/S 739 mmHg 94%

    übermorgen, 17 Dezember, Montag

    Zeit Temperatur Niederschläge Wind Luftdruck Luftfeuchtigkeit
    00:00 -1°C° 0.1 mm 3 m/S 739 mmHg 94%
    01:00 -2°C° 0.1 mm 3 m/S 739 mmHg 94%
    02:00 -2°C° 0.1 mm 2 m/S 739 mmHg 94%
    03:00 -2°C° 0 mm 2 m/S 739 mmHg 94%
    04:00 -2°C° 0 mm 2 m/S 739 mmHg 94%
    05:00 -3°C° 0 mm 2 m/S 739 mmHg 94%
    06:00 -3°C° 0 mm 2 m/S 739 mmHg 94%
    07:00 -1°C° 0 mm 1 m/S 739 mmHg 94%
    08:00 -1°C° 0 mm 1 m/S 739 mmHg 94%
    09:00 0°C° 0 mm 1 m/S 739 mmHg 93%
    10:00 +1°C° 0 mm 1 m/S 739 mmHg 92%
    11:00 +1°C° 0 mm 1 m/S 740 mmHg 91%
    12:00 +2°C° 0 mm 1 m/S 740 mmHg 92%
    13:00 +2°C° 0 mm 1 m/S 739 mmHg 93%
    14:00 +2°C° 0 mm 1 m/S 739 mmHg 93%
    15:00 +1°C° 0 mm 1 m/S 739 mmHg 94%
    16:00 +1°C° 0 mm 1 m/S 740 mmHg 95%
    17:00 0°C° 0 mm 0 m/S 740 mmHg 96%
    18:00 +1°C° 0.1 mm 1 m/S 740 mmHg 96%
    19:00 +1°C° 0.1 mm 1 m/S 741 mmHg 96%
    20:00 +1°C° 0.1 mm 1 m/S 741 mmHg 96%
    21:00 0°C° 0.1 mm 1 m/S 741 mmHg 96%
    22:00 0°C° 0.1 mm 1 m/S 742 mmHg 96%
    23:00 0°C° 0.1 mm 1 m/S 742 mmHg 96%

    18 Dezember, Dienstag

    Zeit Temperatur Niederschläge Wind Luftdruck Luftfeuchtigkeit
    00:00 0°C° 0.1 mm 1 m/S 742 mmHg 96%
    01:00 0°C° 0.1 mm 1 m/S 742 mmHg 96%
    02:00 0°C° 0.1 mm 1 m/S 742 mmHg 96%
    03:00 0°C° 0.2 mm 1 m/S 742 mmHg 96%
    04:00 0°C° 0.2 mm 1 m/S 743 mmHg 96%
    05:00 0°C° 0.2 mm 1 m/S 743 mmHg 96%
    06:00 0°C° 0.2 mm 1 m/S 743 mmHg 96%
    07:00 0°C° 0.2 mm 1 m/S 743 mmHg 96%
    08:00 0°C° 0.2 mm 1 m/S 743 mmHg 96%
    09:00 0°C° 0.2 mm 1 m/S 744 mmHg 96%
    10:00 0°C° 0.2 mm 1 m/S 744 mmHg 95%
    11:00 0°C° 0.2 mm 1 m/S 744 mmHg 94%
    12:00 0°C° 0.1 mm 1 m/S 744 mmHg 94%
    13:00 +1°C° 0.1 mm 1 m/S 743 mmHg 94%
    14:00 +1°C° 0.1 mm 1 m/S 743 mmHg 93%
    15:00 0°C° 0.1 mm 1 m/S 743 mmHg 94%
    16:00 0°C° 0.1 mm 1 m/S 743 mmHg 95%
    17:00 0°C° 0.1 mm 1 m/S 743 mmHg 96%
    18:00 0°C° 0.2 mm 1 m/S 743 mmHg 96%
    19:00 0°C° 0.2 mm 1 m/S 743 mmHg 96%
    20:00 -1°C° 0.2 mm 1 m/S 743 mmHg 97%
    21:00 -1°C° 0.1 mm 1 m/S 743 mmHg 97%
    22:00 -1°C° 0.1 mm 1 m/S 743 mmHg 97%
    23:00 -1°C° 0.1 mm 1 m/S 743 mmHg 97%

    19 Dezember, Mittwoch

    Zeit Temperatur Niederschläge Wind Luftdruck Luftfeuchtigkeit
    00:00 -1°C° 0 mm 1 m/S 743 mmHg 97%
    01:00 -1°C° 0 mm 1 m/S 743 mmHg 97%
    02:00 -1°C° 0 mm 1 m/S 743 mmHg 97%
    03:00 -1°C° 0 mm 1 m/S 742 mmHg 97%
    04:00 -2°C° 0 mm 0 m/S 742 mmHg 97%
    05:00 -2°C° 0 mm 0 m/S 742 mmHg 97%
    06:00 -2°C° 0 mm 0 m/S 742 mmHg 97%
    07:00 -2°C° 0 mm 0 m/S 742 mmHg 97%
    08:00 -1°C° 0 mm 1 m/S 742 mmHg 97%
    09:00 -1°C° 0 mm 1 m/S 742 mmHg 95%
    10:00 -1°C° 0 mm 1 m/S 742 mmHg 94%
    11:00 0°C° 0 mm 1 m/S 742 mmHg 93%
    12:00 0°C° 0 mm 1 m/S 742 mmHg 93%
    13:00 0°C° 0 mm 1 m/S 742 mmHg 92%
    14:00 0°C° 0 mm 1 m/S 741 mmHg 92%
    15:00 0°C° 0 mm 1 m/S 741 mmHg 93%
    16:00 -1°C° 0 mm 1 m/S 741 mmHg 94%
    17:00 -1°C° 0 mm 1 m/S 742 mmHg 95%
    18:00 -1°C° 0 mm 1 m/S 742 mmHg 95%
    19:00 -2°C° 0 mm 1 m/S 742 mmHg 96%
    20:00 -2°C° 0 mm 1 m/S 742 mmHg 96%
    21:00 -2°C° 0 mm 1 m/S 742 mmHg 96%
    22:00 -2°C° 0 mm 1 m/S 742 mmHg 96%
    23:00 -2°C° 0 mm 1 m/S 742 mmHg 95%

    20 Dezember, Donnerstag

    Zeit Temperatur Niederschläge Wind Luftdruck Luftfeuchtigkeit
    00:00 -3°C° 0 mm 1 m/S 742 mmHg 95%
    01:00 -3°C° 0 mm 1 m/S 742 mmHg 95%
    02:00 -3°C° 0 mm 1 m/S 742 mmHg 96%
    03:00 -4°C° 0 mm 1 m/S 742 mmHg 95%
    04:00 -4°C° 0 mm 1 m/S 742 mmHg 95%
    05:00 -4°C° 0 mm 1 m/S 742 mmHg 95%
    06:00 -6°C° 0 mm 2 m/S 742 mmHg 95%
    07:00 -6°C° 0 mm 2 m/S 742 mmHg 94%
    08:00 -7°C° 0 mm 2 m/S 743 mmHg 94%
    09:00 -6°C° 0 mm 2 m/S 743 mmHg 93%
    10:00 -6°C° 0 mm 2 m/S 743 mmHg 92%
    11:00 -6°C° 0 mm 2 m/S 743 mmHg 91%
    12:00 -5°C° 0 mm 2 m/S 743 mmHg 90%
    13:00 -5°C° 0 mm 2 m/S 742 mmHg 90%
    14:00 -5°C° 0 mm 3 m/S 742 mmHg 89%
    15:00 -6°C° 0 mm 3 m/S 742 mmHg 90%
    16:00 -7°C° 0 mm 3 m/S 742 mmHg 92%
    17:00 -8°C° 0 mm 3 m/S 742 mmHg 94%
    18:00 -8°C° 0 mm 3 m/S 743 mmHg 94%
    19:00 -8°C° 0 mm 3 m/S 743 mmHg 94%
    20:00 -8°C° 0 mm 3 m/S 743 mmHg 94%
    21:00 -8°C° 0 mm 3 m/S 743 mmHg 94%
    22:00 -9°C° 0 mm 3 m/S 743 mmHg 93%
    23:00 -9°C° 0 mm 3 m/S 742 mmHg 93%
    Mehr zeigen